Current weather by "City, St" or "zip code"  
 
Advertise Here

Current Conditions: Milwaukee-Timmerman, WI

Fair


19.0 F

Last Updated on Jan 27 2021, 11:45 am CST
Humidity: 63%
Wind Speed: NW 11.5 mph
Barometer 30.38 in
Dewpoint: 8.6 F
Visibility: 10.00 mi
Precip: --
Heat Index: NA
Wind Chill: 7 F
Current conditions at:

Milwaukee-Timmerman, WI (KMWC)

Lat: 43.10961 Lon: 88.03048

Local Radar Image active severe weather and emergency alerts image image weather storm and storm spotter reports image weather observation monitoring service image
Local
Radar
Active
Alerts
Storm Reports Obs
Monitoring

Sign-up For Email & Text Message Weather Alert Notification Services


Advertise Here

Observation History for Milwaukee-Timmerman, WI


Time Wind
(mph)
Vis
(mi)
Weather Precip (in) Temperature (F) Relative
Humidity
Wind
Chill
(F)
Heat
Index
(F)
Pressure
Air Dwpt altimeter
(in)
sea level
(mb)
Rmks
11:45 am CST NW 11.5 10.00 Fair -- 19.0 8.6 63% 7 NA 30.38 M
10:45 am CST N 11.5 10.00 Partly Cloudy -- 18.0 6.8 62% 5 NA 30.40 M
8:45 am CST N 9.2 10.00 Overcast -- 12.0 5.0 73% NA NA 30.38 M
7:45 am CST NW 6.9 10.00 Overcast -- 12.0 5.0 73% 1 NA 30.39 M
6:55 am CST NW 4.6 10.00 Overcast -- 10.0 3.2 72% 2 NA 30.36 M
5:55 am CST N 10.4 10.00 Fair -- 12.0 5.0 73% -1 NA 30.29 M
4:55 am CST N 10.4 10.00 Fair -- 14.0 5.0 67% 1 NA 30.31 M
3:55 am CST N 8.1 10.00 Fair -- 14.0 5.0 67% 3 NA 30.33 M
2:55 am CST NW 5.8 10.00 Fair -- 12.0 5.0 73% 3 NA 30.33 M
1:55 am CST NW 5.8 10.00 Fair -- 14.0 5.0 67% 5 NA 30.31 M
12:55 am CST NW 6.9 10.00 Fair -- 14.0 5.0 67% 4 NA 30.28 M
11:55 pm CST N 9.2 10.00 Fair -- 16.0 8.6 73% 4 NA 30.25 M
10:55 pm CST NW 5.8 10.00 Fair -- 14.0 8.6 79% 5 NA 30.23 M
9:55 pm CST NW 3.5 10.00 Fair -- 14.0 10.4 85% NA NA 30.21 M
8:55 pm CST NW 3.5 10.00 Fair -- 14.0 10.4 85% NA NA 30.21 M
7:45 pm CST N 6.9 10.00 Fair -- 19.0 10.4 68% 10 NA 30.19 M
6:45 pm CST N 12.7 G 23.0 10.00 Overcast -- 21.0 12.2 68% 9 NA 30.17 M
5:45 pm CST N 11.5 10.00 Mostly Cloudy -- 25.0 14.0 63% 14 NA 30.12 M
4:45 pm CST N 11.5 G 24.2 10.00 Mostly Cloudy -- 25.0 14.0 63% 14 NA 30.09 M
3:45 pm CST N 16.1 10.00 Overcast -- 27.0 17.6 69% 15 NA 30.05 M
2:45 pm CST N 17.3 G 23.0 10.00 Overcast -- 27.0 19.4 74% 14 NA 30.02 M
1:45 pm CST N 17.3 G 28.8 7.00 Overcast -- 28.0 21.2 74% 16 NA 29.98 M
12:45 pm CST N 17.3 G 25.3 1.00 Light Snow -- 28.0 21.2 74% 16 NA 29.95 M

Regional Weather Observation


Waukesha County Airport, WI (KUES)

Fair
19.0 F

West Bend Municipal Airport, WI (KETB)

Partly Cloudy
21.0 F

Watertown, WI (KRYV)

Fair
17.0 F

Juneau, Dodge County Airport, WI (KUNU)

Fair
15.0 F

Fond Du Lac County Airport, WI (KFLD)

Fair
17.0 F

Sheboygan County Memorial Airport, WI (KSBM)

Fair
18.0 F